| time (UTC) | temp C | wind direction | speed KPH | gust KPH | rain 1hr cm | rain 24hr cm | rain mn cm | humidity % | barometer mb |
| 20260906225340 | 17 | 34 | 4.8 | 16.1 | 0.00 | 0.00 | 0.00 | 72 | 1018.5 |
| 20260906224840 | 17 | 23 | 4.8 | 19.3 | 0.00 | 0.00 | 0.00 | 72 | 1018.6 |
| 20260906224400 | 17 | 107 | 3.2 | 19.3 | 0.00 | 0.00 | 0.00 | 73 | 1018.4 |
| 20260906223851 | 18 | 72 | 6.4 | 12.9 | 0.00 | 0.00 | 0.00 | 74 | 1018.3 |
| 20260906223352 | 18 | 43 | 4.8 | 12.9 | 0.00 | 0.00 | 0.00 | 75 | 1018.5 |
| 20260906222847 | 18 | 29 | 4.8 | 12.9 | 0.00 | 0.00 | 0.00 | 74 | 1018.4 |
| 20260906222349 | 18 | 120 | 3.2 | 12.9 | 0.00 | 0.00 | 0.00 | 73 | 1018.3 |
| 20260906221839 | 18 | 13 | 4.8 | 12.9 | 0.00 | 0.00 | 0.00 | 73 | 1018.3 |
| 20260906221400 | 18 | 82 | 8.0 | 17.7 | 0.00 | 0.00 | 0.00 | 74 | 1018.2 |
| 20260906220835 | 18 | 86 | 8.0 | 17.7 | 0.00 | 0.00 | 0.00 | 74 | 1018.2 |
| 20260906220349 | 18 | 40 | 4.8 | 14.5 | 0.00 | 0.00 | 0.00 | 74 | 1018.2 |
| 20260906215841 | 19 | 26 | 6.4 | 22.5 | 0.00 | 0.00 | 0.00 | 72 | 1018.2 |
| 20260906215338 | 19 | 90 | 6.4 | 22.5 | 0.00 | 0.00 | 0.00 | 73 | 1018.4 |
| 20260906214848 | 19 | 68 | 6.4 | 19.3 | 0.00 | 0.00 | 0.00 | 72 | 1018.3 |
| 20260906214341 | 20 | 9 | 9.7 | 19.3 | 0.00 | 0.00 | 0.00 | 73 | 1018.2 |
| 20260906213847 | 20 | 49 | 8.0 | 19.3 | 0.00 | 0.00 | 0.00 | 73 | 1018.2 |
| 20260906213401 | 20 | 31 | 6.4 | 17.7 | 0.00 | 0.00 | 0.00 | 71 | 1018.2 |
| 20260906212836 | 20 | 24 | 8.0 | 19.3 | 0.00 | 0.00 | 0.00 | 71 | 1018.2 |
| 20260906212400 | 20 | 15 | 6.4 | 20.9 | 0.00 | 0.00 | 0.00 | 71 | 1018.2 |
| 20260906211857 | 20 | 30 | 12.9 | 20.9 | 0.00 | 0.00 | 0.00 | 71 | 1018.2 |
| 20260906211335 | 20 | 9 | 8.0 | 19.3 | 0.00 | 0.00 | 0.00 | 71 | 1018.3 |
| 20260906210835 | 20 | 53 | 6.4 | 19.3 | 0.00 | 0.00 | 0.00 | 70 | 1018.0 |
| 20260906210331 | 20 | 79 | 8.0 | 19.3 | 0.00 | 0.00 | 0.00 | 68 | 1018.0 |
| 20260906205846 | 20 | 117 | 9.7 | 19.3 | 0.00 | 0.00 | 0.00 | 68 | 1018.1 |
| 20260906205356 | 21 | 22 | 8.0 | 22.5 | 0.00 | 0.00 | 0.00 | 69 | 1018.1 |
| 20260906204839 | 21 | 43 | 9.7 | 22.5 | 0.00 | 0.00 | 0.00 | 68 | 1018.0 |
| 20260906204343 | 21 | 53 | 8.0 | 22.5 | 0.00 | 0.00 | 0.00 | 70 | 1018.0 |
| 20260906203858 | 21 | 5 | 6.4 | 16.1 | 0.00 | 0.00 | 0.00 | 70 | 1018.0 |
| 20260906203335 | 21 | 85 | 4.8 | 20.9 | 0.00 | 0.00 | 0.00 | 70 | 1018.0 |
| 20260906202835 | 21 | 68 | 9.7 | 20.9 | 0.00 | 0.00 | 0.00 | 69 | 1017.9 |
| 20260906202335 | 21 | 70 | 9.7 | 22.5 | 0.00 | 0.00 | 0.00 | 69 | 1018.0 |
| 20260906201850 | 21 | 22 | 11.3 | 22.5 | 0.00 | 0.00 | 0.00 | 67 | 1018.0 |
| 20260906201353 | 21 | 72 | 8.0 | 16.1 | 0.00 | 0.00 | 0.00 | 67 | 1017.9 |
| 20260906200844 | 21 | 22 | 8.0 | 16.1 | 0.00 | 0.00 | 0.00 | 67 | 1017.9 |
| 20260906200355 | 21 | 9 | 8.0 | 16.1 | 0.00 | 0.00 | 0.00 | 71 | 1018.0 |
| 20260906195843 | 22 | 42 | 4.8 | 24.1 | 0.00 | 0.00 | 0.00 | 67 | 1018.0 |
| 20260906195404 | 22 | 9 | 12.9 | 24.1 | 0.00 | 0.00 | 0.00 | 67 | 1017.9 |
| 20260906194839 | 22 | 24 | 8.0 | 17.7 | 0.00 | 0.00 | 0.00 | 66 | 1017.8 |
| 20260906194334 | 21 | 44 | 6.4 | 17.7 | 0.00 | 0.00 | 0.00 | 65 | 1017.9 |
| 20260906193835 | 21 | 30 | 9.7 | 17.7 | 0.00 | 0.00 | 0.00 | 66 | 1017.9 |
| 20260906193350 | 20 | 342 | 6.4 | 20.9 | 0.00 | 0.00 | 0.00 | 70 | 1018.0 |
| 20260906192849 | 21 | 63 | 6.4 | 24.1 | 0.00 | 0.00 | 0.00 | 68 | 1018.0 |
| 20260906192343 | 22 | 71 | 14.5 | 24.1 | 0.00 | 0.00 | 0.00 | 66 | 1018.0 |
| 20260906191835 | 21 | 112 | 8.0 | 19.3 | 0.00 | 0.00 | 0.00 | 67 | 1017.9 |
| 20260906191351 | 21 | 91 | 6.4 | 19.3 | 0.00 | 0.00 | 0.00 | 65 | 1017.9 |
| 20260906190845 | 21 | 355 | 6.4 | 22.5 | 0.00 | 0.00 | 0.00 | 67 | 1018.0 |
| 20260906190342 | 21 | 84 | 12.9 | 22.5 | 0.00 | 0.00 | 0.00 | 65 | 1018.1 |
| 20260906185835 | 21 | 81 | 12.9 | 17.7 | 0.00 | 0.00 | 0.00 | 67 | 1018.0 |
| 20260906185355 | 21 | 40 | 4.8 | 17.7 | 0.00 | 0.00 | 0.00 | 68 | 1018.0 |
| 20260906184854 | 21 | 26 | 4.8 | 22.5 | 0.00 | 0.00 | 0.00 | 68 | 1018.0 |
| 20260906184343 | 21 | 22 | 6.4 | 12.9 | 0.00 | 0.00 | 0.00 | 71 | 1018.0 |
| 20260906183851 | 21 | 15 | 6.4 | 19.3 | 0.00 | 0.00 | 0.00 | 68 | 1018.0 |
| 20260906183356 | 21 | 15 | 4.8 | 20.9 | 0.00 | 0.00 | 0.00 | 67 | 1018.1 |
| 20260906182850 | 21 | 34 | 6.4 | 20.9 | 0.00 | 0.00 | 0.00 | 71 | 1018.1 |
| 20260906182344 | 21 | 91 | 8.0 | 16.1 | 0.00 | 0.00 | 0.00 | 69 | 1018.0 |
| 20260906181858 | 21 | 131 | 8.0 | 22.5 | 0.00 | 0.00 | 0.00 | 71 | 1018.1 |
| 20260906181338 | 21 | 101 | 8.0 | 22.5 | 0.00 | 0.00 | 0.00 | 70 | 1018.1 |
| 20260906180838 | 21 | 5 | 3.2 | 16.1 | 0.00 | 0.00 | 0.00 | 73 | 1018.2 |
| 20260906180351 | 20 | 355 | 8.0 | 17.7 | 0.00 | 0.00 | 0.00 | 75 | 1018.2 |
| 20260906175839 | 20 | 323 | 8.0 | 19.3 | 0.00 | 0.00 | 0.00 | 71 | 1018.3 |
| 20260906175350 | 21 | 43 | 11.3 | 19.3 | 0.00 | 0.00 | 0.00 | 69 | 1018.2 |
| 20260906174847 | 21 | 103 | 6.4 | 14.5 | 0.00 | 0.00 | 0.00 | 73 | 1018.2 |
| 20260906174336 | 20 | 123 | 8.0 | 16.1 | 0.00 | 0.00 | 0.00 | 73 | 1018.3 |
| 20260906173836 | 19 | 47 | 4.8 | 17.7 | 0.00 | 0.00 | 0.00 | 77 | 1018.4 |
| 20260906173348 | 20 | 38 | 6.4 | 20.9 | 0.00 | 0.00 | 0.00 | 77 | 1018.3 |
| 20260906172848 | 20 | 115 | 8.0 | 24.1 | 0.00 | 0.00 | 0.00 | 75 | 1018.4 |
| 20260906172344 | 21 | 334 | 6.4 | 24.1 | 0.00 | 0.00 | 0.00 | 73 | 1018.4 |
| 20260906171844 | 21 | 153 | 9.7 | 17.7 | 0.00 | 0.00 | 0.00 | 75 | 1018.3 |
| 20260906171337 | 20 | 89 | 6.4 | 17.7 | 0.00 | 0.00 | 0.00 | 75 | 1018.2 |
| 20260906170835 | 20 | 84 | 8.0 | 19.3 | 0.00 | 0.00 | 0.00 | 74 | 1018.3 |
| 20260906170353 | 20 | 344 | 9.7 | 19.3 | 0.00 | 0.00 | 0.00 | 75 | 1018.4 |
| 20260906165847 | 20 | 28 | 8.0 | 16.1 | 0.00 | 0.00 | 0.00 | 75 | 1018.4 |
| 20260906165351 | 21 | 32 | 6.4 | 17.7 | 0.00 | 0.00 | 0.00 | 72 | 1018.3 |
| 20260906164847 | 22 | 28 | 8.0 | 17.7 | 0.00 | 0.00 | 0.00 | 71 | 1018.2 |
| 20260906163855 | 21 | 72 | 8.0 | 22.5 | 0.00 | 0.00 | 0.00 | 72 | 1018.3 |
| 20260906163352 | 21 | 104 | 4.8 | 22.5 | 0.00 | 0.00 | 0.00 | 71 | 1018.3 |
| 20260906162847 | 20 | 24 | 11.3 | 19.3 | 0.00 | 0.00 | 0.00 | 72 | 1018.4 |
| 20260906162349 | 21 | 57 | 6.4 | 19.3 | 0.00 | 0.00 | 0.00 | 75 | 1018.5 |
| 20260906161847 | 21 | 12 | 9.7 | 17.7 | 0.00 | 0.00 | 0.00 | 74 | 1018.4 |
| 20260906161344 | 20 | 22 | 9.7 | 17.7 | 0.00 | 0.00 | 0.00 | 78 | 1018.5 |
| 20260906160842 | 19 | 82 | 4.8 | 12.9 | 0.00 | 0.00 | 0.00 | 79 | 1018.5 |
| 20260906160351 | 19 | 9 | 4.8 | 16.1 | 0.00 | 0.00 | 0.00 | 79 | 1018.6 |
| 20260906155835 | 19 | 60 | 9.7 | 14.5 | 0.00 | 0.00 | 0.00 | 78 | 1018.6 |
| 20260906155343 | 18 | 360 | 8.0 | 12.9 | 0.00 | 0.00 | 0.00 | 79 | 1018.5 |
| 20260906154845 | 19 | 40 | 4.8 | 12.9 | 0.00 | 0.00 | 0.00 | 79 | 1018.6 |
| 20260906154344 | 19 | 36 | 4.8 | 12.9 | 0.00 | 0.00 | 0.00 | 78 | 1018.5 |
| 20260906153836 | 20 | 11 | 4.8 | 12.9 | 0.00 | 0.00 | 0.00 | 78 | 1018.5 |
| 20260906153353 | 20 | 21 | 4.8 | 16.1 | 0.00 | 0.00 | 0.00 | 79 | 1018.5 |
| 20260906152845 | 20 | 23 | 8.0 | 16.1 | 0.00 | 0.00 | 0.00 | 79 | 1018.4 |
| 20260906152347 | 19 | 79 | 4.8 | 16.1 | 0.00 | 0.00 | 0.00 | 80 | 1018.5 |
| 20260906151843 | 18 | 338 | 8.0 | 16.1 | 0.00 | 0.00 | 0.00 | 79 | 1018.6 |
| 20260906151348 | 19 | 351 | 8.0 | 17.7 | 0.00 | 0.00 | 0.00 | 79 | 1018.5 |
| 20260906150835 | 19 | 43 | 4.8 | 14.5 | 0.00 | 0.00 | 0.00 | 81 | 1018.5 |
| 20260906150351 | 20 | 65 | 6.4 | 24.1 | 0.00 | 0.00 | 0.00 | 78 | 1018.5 |
| 20260906145840 | 20 | 73 | 6.4 | 24.1 | 0.00 | 0.00 | 0.00 | 82 | 1018.4 |
| 20260906145349 | 20 | 103 | 8.0 | 17.7 | 0.00 | 0.00 | 0.00 | 82 | 1018.3 |
| 20260906144837 | 19 | 17 | 9.7 | 16.1 | 0.00 | 0.00 | 0.00 | 84 | 1018.3 |
| 20260906144340 | 18 | 15 | 4.8 | 14.5 | 0.00 | 0.00 | 0.00 | 86 | 1018.3 |
| 20260906143837 | 18 | 355 | 4.8 | 16.1 | 0.00 | 0.00 | 0.00 | 84 | 1018.3 |
| 20260906143338 | 18 | 331 | 6.4 | 16.1 | 0.00 | 0.00 | 0.00 | 84 | 1018.3 |
| 20260906142858 | 18 | 42 | 4.8 | 9.7 | 0.00 | 0.00 | 0.00 | 84 | 1018.2 |
| 20260906142342 | 18 | 85 | 3.2 | 11.3 | 0.00 | 0.00 | 0.00 | 87 | 1018.2 |
| 20260906141850 | 17 | 92 | 4.8 | 9.7 | 0.00 | 0.00 | 0.00 | 87 | 1018.3 |
| 20260906141353 | 17 | 85 | 3.2 | 9.7 | 0.00 | 0.00 | 0.00 | 87 | 1018.2 |
| 20260906140836 | 17 | 43 | 3.2 | 12.9 | 0.00 | 0.00 | 0.00 | 87 | 1018.1 |
| 20260906140335 | 17 | 67 | 4.8 | 14.5 | 0.00 | 0.00 | 0.00 | 87 | 1018.0 |
| 20260906135845 | 17 | 39 | 3.2 | 14.5 | 0.00 | 0.00 | 0.00 | 88 | 1018.0 |
| 20260906135341 | 17 | 71 | 4.8 | 12.9 | 0.00 | 0.00 | 0.00 | 89 | 1018.1 |
| 20260906134858 | 17 | 5 | 6.4 | 16.1 | 0.00 | 0.00 | 0.00 | 90 | 1018.0 |
| 20260906134333 | 17 | 89 | 8.0 | 14.5 | 0.00 | 0.00 | 0.00 | 89 | 1017.9 |
| 20260906133909 | 17 | 134 | 3.2 | 12.9 | 0.00 | 0.00 | 0.00 | 90 | 1017.9 |
| 20260906133345 | 17 | 94 | 6.4 | 14.5 | 0.00 | 0.00 | 0.00 | 89 | 1018.0 |
| 20260906132840 | 17 | 12 | 4.8 | 14.5 | 0.00 | 0.00 | 0.00 | 90 | 1018.0 |
| 20260906132335 | 17 | 44 | 6.4 | 14.5 | 0.00 | 0.00 | 0.00 | 90 | 1017.9 |
| 20260906131851 | 17 | 32 | 6.4 | 14.5 | 0.00 | 0.00 | 0.00 | 90 | 1017.9 |
| 20260906131348 | 17 | 97 | 4.8 | 12.9 | 0.00 | 0.00 | 0.00 | 90 | 1017.9 |
| 20260906130844 | 17 | 5 | 4.8 | 14.5 | 0.00 | 0.00 | 0.00 | 90 | 1017.8 |
| 20260906130339 | 17 | 111 | 6.4 | 14.5 | 0.00 | 0.00 | 0.00 | 88 | 1017.8 |
| 20260906125909 | 17 | 103 | 3.2 | 11.3 | 0.00 | 0.00 | 0.00 | 90 | 1017.7 |
| 20260906125406 | 17 | 19 | 6.4 | 9.7 | 0.00 | 0.00 | 0.00 | 89 | 1017.7 |
| 20260906124841 | 17 | 65 | 8.0 | 12.9 | 0.00 | 0.00 | 0.00 | 89 | 1017.4 |
| 20260906124337 | 17 | 66 | 3.2 | 9.7 | 0.00 | 0.00 | 0.00 | 88 | 1017.5 |
| 20260906123834 | 17 | 69 | 6.4 | 11.3 | 0.00 | 0.00 | 0.00 | 89 | 1017.5 |
| 20260906123350 | 17 | 25 | 4.8 | 9.7 | 0.00 | 0.00 | 0.00 | 89 | 1017.4 |
| 20260906122906 | 17 | 360 | 4.8 | 8.0 | 0.00 | 0.00 | 0.00 | 90 | 1017.4 |
| 20260906122400 | 17 | 110 | 4.8 | 8.0 | 0.00 | 0.00 | 0.00 | 91 | 1017.5 |
| 20260906121835 | 17 | 73 | 1.6 | 9.7 | 0.00 | 0.00 | 0.00 | 90 | 1017.5 |
| 20260906121332 | 17 | 39 | 4.8 | 9.7 | 0.00 | 0.00 | 0.00 | 91 | 1017.5 |
| 20260906120850 | 17 | 44 | 4.8 | 9.7 | 0.00 | 0.00 | 0.00 | 92 | 1017.4 |
| 20260906120329 | 17 | 28 | 3.2 | 8.0 | 0.00 | 0.00 | 0.00 | 92 | 1017.4 |
| 20260906115838 | 17 | 64 | 3.2 | 8.0 | 0.00 | 0.00 | 0.00 | 93 | 1017.5 |
| 20260906115335 | 16 | 107 | 1.6 | 8.0 | 0.00 | 0.00 | 0.00 | 94 | 1017.4 |
| 20260906114851 | 16 | 22 | 1.6 | 6.4 | 0.00 | 0.00 | 0.00 | 94 | 1017.4 |
| 20260906114347 | 16 | 5 | 3.2 | 6.4 | 0.00 | 0.00 | 0.00 | 94 | 1017.2 |
| 20260906113844 | 16 | 71 | 1.6 | 4.8 | 0.00 | 0.00 | 0.00 | 94 | 1017.2 |
| 20260906113339 | 15 | 71 | 0.0 | 3.2 | 0.00 | 0.00 | 0.00 | 94 | 1017.1 |
| 20260906112836 | 15 | 71 | 1.6 | 3.2 | 0.00 | 0.00 | 0.00 | 93 | 1017.1 |
| 20260906112334 | 15 | 71 | 1.6 | 3.2 | 0.00 | 0.00 | 0.00 | 94 | 1017.1 |
| 20260906111849 | 15 | 71 | 1.6 | 3.2 | 0.00 | 0.00 | 0.00 | 93 | 1017.0 |
| 20260906111405 | 15 | 71 | 0.0 | 1.6 | 0.00 | 0.00 | 0.00 | 93 | 1016.8 |
| 20260906110840 | 15 | 71 | 0.0 | 1.6 | 0.00 | 0.00 | 0.00 | 93 | 1016.9 |
| 20260906110336 | 15 | 71 | 0.0 | 1.6 | 0.00 | 0.00 | 0.00 | 93 | 1016.8 |
| 20260906105845 | 15 | 71 | 0.0 | 1.6 | 0.00 | 0.00 | 0.00 | 93 | 1016.8 |
| 20260906105341 | 15 | 71 | 0.0 | 3.2 | 0.00 | 0.00 | 0.00 | 93 | 1016.8 |
| 20260906104838 | 15 | 71 | 1.6 | 3.2 | 0.00 | 0.00 | 0.00 | 93 | 1016.7 |
| 20260906104333 | 15 | 71 | 0.0 | 3.2 | 0.00 | 0.00 | 0.00 | 93 | 1016.7 |
| 20260906103850 | 15 | 71 | 0.0 | 3.2 | 0.00 | 0.00 | 0.00 | 93 | 1016.7 |
| 20260906103346 | 15 | 71 | 1.6 | 3.2 | 0.00 | 0.00 | 0.00 | 93 | 1016.6 |
| 20260906102846 | 15 | 71 | 1.6 | 3.2 | 0.00 | 0.00 | 0.00 | 92 | 1016.6 |
| 20260906102342 | 15 | 71 | 1.6 | 3.2 | 0.00 | 0.00 | 0.00 | 92 | 1016.6 |
| 20260906101859 | 15 | 71 | 0.0 | 3.2 | 0.00 | 0.00 | 0.00 | 92 | 1016.6 |
| 20260906101335 | 15 | 71 | 0.0 | 3.2 | 0.00 | 0.00 | 0.00 | 92 | 1016.6 |
| 20260906100851 | 15 | 71 | 0.0 | 1.6 | 0.00 | 0.00 | 0.00 | 92 | 1016.6 |
| 20260906100347 | 15 | 71 | 0.0 | 1.6 | 0.00 | 0.00 | 0.00 | 92 | 1016.5 |
| 20260906095835 | 15 | 71 | 0.0 | 1.6 | 0.00 | 0.00 | 0.00 | 92 | 1016.5 |
| 20260906095351 | 15 | 71 | 0.0 | 0.0 | 0.00 | 0.00 | 0.00 | 92 | 1016.5 |
| 20260906094846 | 15 | 71 | 0.0 | 0.0 | 0.00 | 0.00 | 0.00 | 92 | 1016.3 |
| 20260906094403 | 15 | 71 | 0.0 | 0.0 | 0.00 | 0.00 | 0.00 | 92 | 1016.3 |
| 20260906093858 | 15 | 71 | 0.0 | 1.6 | 0.00 | 0.00 | 0.00 | 92 | 1016.3 |
| 20260906093333 | 15 | 71 | 0.0 | 1.6 | 0.00 | 0.00 | 0.00 | 91 | 1016.2 |
| 20260906092850 | 15 | 71 | 0.0 | 0.0 | 0.00 | 0.00 | 0.00 | 91 | 1016.1 |
| 20260906092342 | 15 | 71 | 0.0 | 0.0 | 0.00 | 0.00 | 0.00 | 91 | 1016.0 |
| 20260906091840 | 15 | 71 | 0.0 | 1.6 | 0.00 | 0.00 | 0.00 | 91 | 1016.0 |
| 20260906091336 | 15 | 71 | 0.0 | 1.6 | 0.00 | 0.00 | 0.00 | 91 | 1016.0 |
| 20260906090851 | 15 | 71 | 0.0 | 0.0 | 0.00 | 0.00 | 0.00 | 91 | 1016.0 |
| 20260906090347 | 15 | 71 | 0.0 | 0.0 | 0.00 | 0.00 | 0.00 | 91 | 1016.0 |
| 20260906085836 | 15 | 71 | 0.0 | 0.0 | 0.00 | 0.00 | 0.00 | 90 | 1015.9 |
| 20260906085352 | 15 | 71 | 0.0 | 0.0 | 0.00 | 0.00 | 0.00 | 90 | 1015.8 |
| 20260906084847 | 15 | 71 | 0.0 | 0.0 | 0.00 | 0.00 | 0.00 | 90 | 1015.8 |
| 20260906084347 | 15 | 71 | 0.0 | 0.0 | 0.00 | 0.00 | 0.00 | 91 | 1015.8 |
| 20260906083844 | 15 | 71 | 0.0 | 3.2 | 0.00 | 0.00 | 0.00 | 90 | 1015.6 |
| 20260906083341 | 15 | 71 | 0.0 | 3.2 | 0.00 | 0.00 | 0.00 | 90 | 1015.6 |
| 20260906082857 | 15 | 71 | 0.0 | 1.6 | 0.00 | 0.00 | 0.00 | 90 | 1015.6 |
| 20260906082353 | 15 | 71 | 0.0 | 3.2 | 0.00 | 0.00 | 0.00 | 90 | 1015.5 |
| 20260906081847 | 15 | 71 | 0.0 | 3.2 | 0.00 | 0.00 | 0.00 | 90 | 1015.5 |
| 20260906081345 | 15 | 71 | 0.0 | 1.6 | 0.00 | 0.00 | 0.00 | 90 | 1015.6 |
| 20260906080901 | 15 | 71 | 0.0 | 3.2 | 0.00 | 0.00 | 0.00 | 89 | 1015.4 |
| 20260906080336 | 15 | 71 | 0.0 | 3.2 | 0.00 | 0.00 | 0.00 | 90 | 1015.4 |
| 20260906075844 | 15 | 71 | 1.6 | 3.2 | 0.00 | 0.00 | 0.00 | 89 | 1015.4 |
| 20260906075341 | 15 | 71 | 0.0 | 4.8 | 0.00 | 0.00 | 0.00 | 88 | 1015.3 |
| 20260906074838 | 15 | 71 | 0.0 | 4.8 | 0.00 | 0.00 | 0.00 | 89 | 1015.3 |
| 20260906074354 | 15 | 71 | 0.0 | 3.2 | 0.00 | 0.00 | 0.00 | 90 | 1015.5 |
| 20260906073849 | 15 | 71 | 0.0 | 3.2 | 0.00 | 0.00 | 0.00 | 91 | 1015.4 |
| 20260906073345 | 15 | 71 | 1.6 | 3.2 | 0.00 | 0.00 | 0.00 | 90 | 1015.5 |
| 20260906072842 | 15 | 71 | 0.0 | 3.2 | 0.00 | 0.00 | 0.00 | 90 | 1015.3 |
| 20260906072358 | 15 | 71 | 0.0 | 3.2 | 0.00 | 0.00 | 0.00 | 90 | 1015.2 |
| 20260906071833 | 15 | 71 | 0.0 | 3.2 | 0.00 | 0.00 | 0.00 | 90 | 1015.2 |
| 20260906071350 | 15 | 71 | 0.0 | 3.2 | 0.00 | 0.00 | 0.00 | 90 | 1015.2 |
| 20260906070846 | 15 | 71 | 1.6 | 3.2 | 0.00 | 0.00 | 0.00 | 90 | 1015.2 |
| 20260906070342 | 15 | 71 | 0.0 | 3.2 | 0.00 | 0.00 | 0.00 | 90 | 1015.2 |
| 20260906065834 | 15 | 71 | 0.0 | 3.2 | 0.00 | 0.00 | 0.00 | 90 | 1015.3 |
| 20260906065350 | 15 | 71 | 0.0 | 1.6 | 0.00 | 0.00 | 0.00 | 89 | 1015.4 |
| 20260906064846 | 15 | 71 | 0.0 | 1.6 | 0.00 | 0.00 | 0.00 | 88 | 1015.3 |
| 20260906064342 | 15 | 71 | 0.0 | 3.2 | 0.00 | 0.00 | 0.00 | 88 | 1015.3 |
| 20260906063837 | 16 | 71 | 1.6 | 4.8 | 0.00 | 0.00 | 0.00 | 88 | 1015.3 |
| 20260906063334 | 16 | 71 | 0.0 | 4.8 | 0.00 | 0.00 | 0.00 | 88 | 1015.4 |
| 20260906062849 | 16 | 71 | 1.6 | 6.4 | 0.00 | 0.00 | 0.00 | 87 | 1015.4 |
| 20260906062407 | 16 | 71 | 3.2 | 6.4 | 0.00 | 0.00 | 0.00 | 88 | 1015.3 |
| 20260906061840 | 16 | 61 | 1.6 | 3.2 | 0.00 | 0.00 | 0.00 | 88 | 1015.4 |
| 20260906061336 | 16 | 61 | 1.6 | 3.2 | 0.00 | 0.00 | 0.00 | 87 | 1015.3 |
| 20260906060911 | 16 | 61 | 0.0 | 4.8 | 0.00 | 0.00 | 0.00 | 87 | 1015.3 |
| 20260906060346 | 16 | 61 | 1.6 | 4.8 | 0.00 | 0.00 | 0.00 | 87 | 1015.3 |
| 20260906055834 | 16 | 76 | 1.6 | 3.2 | 0.00 | 0.00 | 0.00 | 87 | 1015.4 |
| 20260906055409 | 16 | 76 | 0.0 | 4.8 | 0.00 | 0.00 | 0.00 | 86 | 1015.4 |
| 20260906054844 | 16 | 76 | 1.6 | 4.8 | 0.00 | 0.00 | 0.00 | 86 | 1015.5 |
| 20260906054400 | 16 | 64 | 0.0 | 3.2 | 0.00 | 0.00 | 0.00 | 86 | 1015.5 |
| 20260906053836 | 16 | 64 | 1.6 | 4.8 | 0.00 | 0.00 | 0.00 | 86 | 1015.5 |
| 20260906053351 | 16 | 64 | 1.6 | 4.8 | 0.00 | 0.00 | 0.00 | 86 | 1015.5 |
| 20260906052848 | 16 | 64 | 1.6 | 4.8 | 0.00 | 0.00 | 0.00 | 86 | 1015.4 |
| 20260906052344 | 16 | 49 | 1.6 | 4.8 | 0.00 | 0.00 | 0.00 | 86 | 1015.5 |
| 20260906051840 | 16 | 49 | 0.0 | 3.2 | 0.00 | 0.00 | 0.00 | 86 | 1015.5 |
| 20260906051336 | 16 | 49 | 0.0 | 4.8 | 0.00 | 0.00 | 0.00 | 86 | 1015.4 |
| 20260906050837 | 16 | 49 | 0.0 | 4.8 | 0.00 | 0.00 | 0.00 | 86 | 1015.4 |
| 20260906050353 | 16 | 46 | 0.0 | 4.8 | 0.00 | 0.00 | 0.00 | 86 | 1015.4 |
| 20260906045841 | 16 | 46 | 1.6 | 4.8 | 0.00 | 0.00 | 0.00 | 86 | 1015.5 |
| 20260906045336 | 16 | 42 | 1.6 | 3.2 | 0.00 | 0.00 | 0.00 | 86 | 1015.4 |
| 20260906044833 | 16 | 42 | 1.6 | 4.8 | 0.00 | 0.00 | 0.00 | 86 | 1015.5 |
| 20260906044411 | 16 | 42 | 1.6 | 4.8 | 0.00 | 0.00 | 0.00 | 85 | 1015.5 |
| 20260906043905 | 16 | 42 | 0.0 | 4.8 | 0.00 | 0.00 | 0.00 | 85 | 1015.4 |
| 20260906043341 | 16 | 39 | 1.6 | 6.4 | 0.00 | 0.00 | 0.00 | 85 | 1015.5 |
| 20260906042837 | 16 | 39 | 3.2 | 6.4 | 0.00 | 0.00 | 0.00 | 85 | 1015.4 |
| 20260906042334 | 16 | 360 | 1.6 | 4.8 | 0.00 | 0.00 | 0.00 | 85 | 1015.4 |
| 20260906041910 | 16 | 96 | 0.0 | 3.2 | 0.00 | 0.00 | 0.00 | 86 | 1015.4 |
| 20260906041405 | 16 | 96 | 0.0 | 4.8 | 0.00 | 0.00 | 0.00 | 87 | 1015.4 |
| 20260906040901 | 16 | 96 | 1.6 | 4.8 | 0.00 | 0.00 | 0.00 | 87 | 1015.4 |
| 20260906040335 | 16 | 96 | 0.0 | 1.6 | 0.00 | 0.00 | 0.00 | 88 | 1015.4 |
| 20260906035844 | 16 | 96 | 0.0 | 1.6 | 0.00 | 0.00 | 0.00 | 89 | 1015.2 |
| 20260906035341 | 16 | 96 | 0.0 | 3.2 | 0.00 | 0.00 | 0.00 | 89 | 1015.1 |
| 20260906034837 | 15 | 96 | 0.0 | 3.2 | 0.00 | 0.00 | 0.00 | 89 | 1015.2 |
| 20260906034333 | 15 | 96 | 0.0 | 3.2 | 0.00 | 0.00 | 0.00 | 90 | 1015.3 |
| 20260906033850 | 15 | 96 | 0.0 | 0.0 | 0.00 | 0.00 | 0.00 | 90 | 1015.2 |
| 20260906033346 | 15 | 96 | 0.0 | 1.6 | 0.00 | 0.00 | 0.00 | 89 | 1015.3 |
| 20260906032842 | 15 | 96 | 0.0 | 1.6 | 0.00 | 0.00 | 0.00 | 89 | 1015.2 |
| 20260906032358 | 15 | 96 | 0.0 | 1.6 | 0.00 | 0.00 | 0.00 | 89 | 1015.2 |
| 20260906031833 | 15 | 96 | 0.0 | 0.0 | 0.00 | 0.00 | 0.00 | 88 | 1015.2 |
| 20260906031348 | 15 | 96 | 0.0 | 0.0 | 0.00 | 0.00 | 0.00 | 88 | 1015.1 |
| 20260906030845 | 15 | 96 | 0.0 | 1.6 | 0.00 | 0.00 | 0.00 | 87 | 1015.0 |
| 20260906030340 | 16 | 96 | 0.0 | 3.2 | 0.00 | 0.00 | 0.00 | 86 | 1015.0 |
| 20260906025846 | 16 | 96 | 0.0 | 4.8 | 0.00 | 0.00 | 0.00 | 86 | 1014.9 |
| 20260906025347 | 16 | 96 | 1.6 | 4.8 | 0.00 | 0.00 | 0.00 | 85 | 1014.9 |
| 20260906024843 | 16 | 107 | 1.6 | 4.8 | 0.00 | 0.00 | 0.00 | 84 | 1015.0 |
| 20260906024340 | 16 | 48 | 1.6 | 4.8 | 0.00 | 0.00 | 0.00 | 84 | 1015.1 |
| 20260906023836 | 16 | 46 | 1.6 | 3.2 | 0.00 | 0.00 | 0.00 | 84 | 1015.1 |
| 20260906023351 | 16 | 46 | 1.6 | 4.8 | 0.00 | 0.00 | 0.00 | 84 | 1015.1 |
| 20260906022847 | 16 | 46 | 1.6 | 3.2 | 0.00 | 0.00 | 0.00 | 83 | 1015.2 |
| 20260906022343 | 16 | 46 | 0.0 | 3.2 | 0.00 | 0.00 | 0.00 | 83 | 1015.1 |
| 20260906021840 | 16 | 46 | 0.0 | 3.2 | 0.00 | 0.00 | 0.00 | 83 | 1015.0 |
| 20260906021336 | 16 | 46 | 0.0 | 3.2 | 0.00 | 0.00 | 0.00 | 82 | 1015.0 |
| 20260906020852 | 17 | 46 | 0.0 | 3.2 | 0.00 | 0.00 | 0.00 | 81 | 1015.0 |
| 20260906020348 | 17 | 46 | 0.0 | 1.6 | 0.00 | 0.00 | 0.00 | 81 | 1014.9 |
| 20260906015835 | 17 | 46 | 0.0 | 3.2 | 0.00 | 0.00 | 0.00 | 81 | 1014.9 |
| 20260906015333 | 17 | 46 | 1.6 | 3.2 | 0.00 | 0.00 | 0.00 | 81 | 1014.8 |
| 20260906014848 | 17 | 46 | 0.0 | 3.2 | 0.00 | 0.00 | 0.00 | 81 | 1014.9 |
| 20260906014345 | 17 | 46 | 0.0 | 3.2 | 0.00 | 0.00 | 0.00 | 80 | 1014.9 |
| 20260906013841 | 17 | 49 | 0.0 | 4.8 | 0.00 | 0.00 | 0.00 | 79 | 1015.0 |
| 20260906013400 | 17 | 49 | 1.6 | 4.8 | 0.00 | 0.00 | 0.00 | 79 | 1014.9 |
| 20260906012855 | 17 | 38 | 0.0 | 4.8 | 0.00 | 0.00 | 0.00 | 79 | 1014.8 |
| 20260906012336 | 17 | 37 | 1.6 | 9.7 | 0.00 | 0.00 | 0.00 | 79 | 1014.9 |
| 20260906011851 | 17 | 37 | 3.2 | 9.7 | 0.00 | 0.00 | 0.00 | 79 | 1014.8 |
| 20260906011348 | 17 | 99 | 3.2 | 9.7 | 0.00 | 0.00 | 0.00 | 79 | 1014.9 |
| 20260906010904 | 17 | 360 | 3.2 | 9.7 | 0.00 | 0.00 | 0.00 | 79 | 1014.8 |
| 20260906010340 | 17 | 18 | 3.2 | 8.0 | 0.00 | 0.00 | 0.00 | 79 | 1014.7 |
| 20260906005848 | 17 | 38 | 1.6 | 8.0 | 0.00 | 0.00 | 0.00 | 81 | 1014.7 |
| 20260906005345 | 17 | 32 | 0.0 | 1.6 | 0.00 | 0.00 | 0.00 | 81 | 1014.6 |
| 20260906004840 | 17 | 32 | 0.0 | 4.8 | 0.00 | 0.00 | 0.00 | 80 | 1014.6 |
| 20260906004357 | 17 | 32 | 1.6 | 4.8 | 0.00 | 0.00 | 0.00 | 80 | 1014.5 |
| 20260906003832 | 17 | 32 | 1.6 | 4.8 | 0.00 | 0.00 | 0.00 | 80 | 1014.6 |
| 20260906003349 | 17 | 31 | 3.2 | 4.8 | 0.00 | 0.00 | 0.00 | 81 | 1014.6 |
| 20260906002846 | 17 | 360 | 1.6 | 4.8 | 0.00 | 0.00 | 0.00 | 81 | 1014.6 |
| 20260906002342 | 17 | 17 | 1.6 | 6.4 | 0.00 | 0.00 | 0.00 | 81 | 1014.5 |
| 20260906001838 | 17 | 39 | 1.6 | 6.4 | 0.00 | 0.00 | 0.00 | 81 | 1014.4 |
| 20260906001334 | 17 | 5 | 1.6 | 6.4 | 0.00 | 0.00 | 0.00 | 81 | 1014.4 |
| 20260906000851 | 17 | 337 | 1.6 | 4.8 | 0.00 | 0.00 | 0.00 | 81 | 1014.4 |
| 20260906000348 | 17 | 343 | 1.6 | 4.8 | 0.00 | 0.00 | 0.00 | 80 | 1014.5 |
| 20260905235835 | 17 | 350 | 1.6 | 4.8 | 0.00 | 0.00 | 0.00 | 80 | 1014.4 |
| 20260905235351 | 17 | 351 | 0.0 | 6.4 | 0.00 | 0.00 | 0.00 | 80 | 1014.4 |
| 20260905234908 | 17 | 360 | 3.2 | 6.4 | 0.00 | 0.00 | 0.00 | 79 | 1014.4 |
| 20260905234343 | 17 | 338 | 3.2 | 6.4 | 0.00 | 0.00 | 0.00 | 79 | 1014.3 |
| 20260905233841 | 18 | 336 | 1.6 | 4.8 | 0.00 | 0.00 | 0.00 | 78 | 1014.3 |
| 20260905233341 | 18 | 333 | 1.6 | 4.8 | 0.00 | 0.00 | 0.00 | 78 | 1014.3 |
| 20260905232837 | 18 | 339 | 1.6 | 4.8 | 0.00 | 0.00 | 0.00 | 77 | 1014.3 |
| 20260905232414 | 18 | 295 | 3.2 | 14.5 | 0.00 | 0.00 | 0.00 | 76 | 1014.4 |
| 20260905231848 | 18 | 333 | 3.2 | 14.5 | 0.00 | 0.00 | 0.00 | 76 | 1014.5 |
| 20260905231344 | 18 | 355 | 1.6 | 8.0 | 0.00 | 0.00 | 0.00 | 76 | 1014.5 |
| 20260905230840 | 18 | 342 | 4.8 | 6.4 | 0.00 | 0.00 | 0.00 | 77 | 1014.5 |
| 20260905230336 | 18 | 17 | 3.2 | 6.4 | 0.00 | 0.00 | 0.00 | 76 | 1014.7 |
| 20260905225844 | 18 | 326 | 1.6 | 4.8 | 0.00 | 0.00 | 0.00 | 76 | 1014.5 |